Le nostre stazioni meteo in Italia

Pubblicità
Il mio iltempo24.it
Lampedusa, Italia (16490): Temperatura & dewpoint: 17.10.2017 04:00:00 - 23.10.2017 04:00:00 (CEST)Lampedusa, Italia (16490): velocità del vento: 17.10.2017 04:00:00 - 23.10.2017 04:00:00 (CEST)Lampedusa, Italia (16490): direzione del vento: 17.10.2017 04:00:00 - 23.10.2017 04:00:00 (CEST)Lampedusa, Italia (16490): visibility: 17.10.2017 04:00:00 - 23.10.2017 04:00:00 (CEST)
Data & Tempo tt [°C] td [°C] ff [km/h] ff [kn] dd vv [km]
23.10.2017 04:00:00 - - - - - -
23.10.2017 03:00:00 - - - - - -
23.10.2017 02:00:00 - - - - - -
23.10.2017 01:00:00 - - - - - -
23.10.2017 00:00:00 - - - - - -
22.10.2017 23:00:00 - - - - - -
22.10.2017 22:00:00 21,0 18,0 11 6 ONO 10
22.10.2017 21:00:00 21,0 18,0 9 5 ONO 10
22.10.2017 20:00:00 22,0 18,0 8 4 NO 10
22.10.2017 19:00:00 22,0 18,0 11 6 NNO 10
22.10.2017 18:00:00 23,0 18,0 13 7 NO 10
22.10.2017 17:00:00 23,0 19,0 11 6 NNO 10
22.10.2017 16:00:00 23,0 18,0 9 5 NNO 10
22.10.2017 15:00:00 23,0 18,0 11 6 N 10
22.10.2017 14:00:00 - - - - - -
22.10.2017 13:00:00 24,0 18,0 13 7 NNO 10
22.10.2017 12:00:00 24,0 18,0 5 3 ONO 10
22.10.2017 11:00:00 23,0 18,0 11 6 NNO 10
22.10.2017 10:00:00 23,0 19,0 5 3 NO 10
22.10.2017 09:00:00 22,0 19,0 9 5 N 10
22.10.2017 08:00:00 22,0 19,0 13 7 N 10
22.10.2017 07:00:00 21,0 19,0 11 6 N 10
22.10.2017 06:00:00 22,0 19,0 13 7 N 10
22.10.2017 05:00:00 - - - - - -
22.10.2017 04:00:00 - - - - - -
22.10.2017 03:00:00 - - - - - -
22.10.2017 02:00:00 - - - - - -
22.10.2017 01:00:00 - - - - - -
22.10.2017 00:00:00 - - - - - -
21.10.2017 23:00:00 - - - - - -
21.10.2017 22:00:00 23,0 9,0 15 8 E 10
21.10.2017 21:00:00 23,0 19,0 16 9 ENE 10
21.10.2017 20:00:00 23,0 19,0 24 13 E 10
21.10.2017 19:00:00 23,0 19,0 18 10 NE 10
21.10.2017 18:00:00 22,0 18,0 5 3 NO 10
21.10.2017 17:00:00 22,0 18,0 16 9 SO 10
21.10.2017 16:00:00 24,0 20,0 28 15 E 10
21.10.2017 15:00:00 22,0 19,0 22 12 ENE 10
21.10.2017 14:00:00 21,0 17,0 24 13 NE 10
21.10.2017 13:00:00 21,0 17,0 22 12 N 10
21.10.2017 12:00:00 20,0 17,0 11 6 N 8
21.10.2017 11:00:00 20,0 17,0 15 8 NNO 4,0
21.10.2017 10:00:00 20,0 17,0 28 15 NO 8
21.10.2017 09:00:00 19,0 17,0 31 17 ONO 7
21.10.2017 08:00:00 20,0 17,0 28 15 ONO 4,0
21.10.2017 07:00:00 24,0 19,0 16 9 E 8
21.10.2017 06:00:00 24,0 20,0 21 11 E 10
21.10.2017 05:00:00 - - - - - -
21.10.2017 04:00:00 - - - - - -
21.10.2017 03:00:00 - - - - - -
21.10.2017 02:00:00 - - - - - -
21.10.2017 01:00:00 - - - - - -
21.10.2017 00:00:00 - - - - - -
20.10.2017 23:00:00 - - - - - -
20.10.2017 22:00:00 - - - - - -
20.10.2017 21:00:00 24,0 21,0 24 13 ESE 10
20.10.2017 20:00:00 24,0 20,0 28 15 SE 10
20.10.2017 19:00:00 24,0 20,0 24 13 SE 10
20.10.2017 18:00:00 25,0 21,0 24 13 SE 10
20.10.2017 17:00:00 25,0 20,0 28 15 SSE 10
20.10.2017 16:00:00 25,0 20,0 31 17 SE 10
20.10.2017 15:00:00 25,0 20,0 35 19 SE 10
20.10.2017 14:00:00 25,0 20,0 35 19 SE 9
20.10.2017 13:00:00 25,0 21,0 35 19 SE 9
20.10.2017 12:00:00 25,0 20,0 39 21 SE 9
20.10.2017 11:00:00 25,0 21,0 37 20 SE 9
20.10.2017 10:00:00 24,0 21,0 41 22 SE 9
20.10.2017 09:00:00 24,0 21,0 37 20 SE 10
20.10.2017 08:00:00 24,0 20,0 37 20 SE 10
20.10.2017 07:00:00 24,0 20,0 35 19 SE 10
20.10.2017 06:00:00 24,0 19,0 35 19 SSE 10
20.10.2017 05:00:00 - - - - - -
20.10.2017 04:00:00 - - - - - -
20.10.2017 03:00:00 - - - - - -
20.10.2017 02:00:00 - - - - - -
20.10.2017 01:00:00 - - - - - -
20.10.2017 00:00:00 - - - - - -
19.10.2017 23:00:00 24,0 18,0 28 15 SE 10
19.10.2017 22:00:00 24,0 17,0 29 16 SE 10
19.10.2017 21:00:00 24,0 16,0 29 16 SSE 10
19.10.2017 20:00:00 24,0 16,0 26 14 SSE 10
19.10.2017 19:00:00 24,0 17,0 22 12 SSE 10
19.10.2017 18:00:00 24,0 17,0 22 12 SSE 10
19.10.2017 17:00:00 25,0 18,0 15 8 S 10
19.10.2017 16:00:00 26,0 18,0 18 10 S 10
19.10.2017 15:00:00 26,0 17,0 18 10 S 10
19.10.2017 14:00:00 26,0 17,0 18 10 SSO 10
19.10.2017 13:00:00 26,0 17,0 18 10 SSO 10
19.10.2017 12:00:00 25,0 16,0 18 10 SSO 10
19.10.2017 11:00:00 25,0 16,0 16 9 SSO 10
19.10.2017 10:00:00 24,0 17,0 15 8 SSO 10
19.10.2017 09:00:00 24,0 17,0 18 10 SSO 10
19.10.2017 08:00:00 23,0 16,0 15 8 SSO 10
19.10.2017 07:00:00 23,0 16,0 15 8 SSO 10
19.10.2017 06:00:00 23,0 16,0 16 9 SSO 10
19.10.2017 05:00:00 - - - - - -
19.10.2017 04:00:00 - - - - - -
19.10.2017 03:00:00 - - - - - -
19.10.2017 02:00:00 - - - - - -
19.10.2017 01:00:00 - - - - - -
19.10.2017 00:00:00 - - - - - -
18.10.2017 23:00:00 - - - - - -
18.10.2017 22:00:00 22,0 16,0 11 6 S 10
18.10.2017 21:00:00 22,0 15,0 11 6 S 10
18.10.2017 20:00:00 22,0 15,0 9 5 S 10
18.10.2017 19:00:00 22,0 15,0 9 5 S 10
18.10.2017 18:00:00 23,0 15,0 9 5 SSE 10
18.10.2017 17:00:00 23,0 15,0 9 5 SSE 10
18.10.2017 16:00:00 23,0 15,0 9 5 SE 10
18.10.2017 15:00:00 23,0 15,0 8 4 SE 10
18.10.2017 14:00:00 24,0 14,0 9 5 SSE 10
18.10.2017 13:00:00 24,0 14,0 8 4 SSE 10
18.10.2017 12:00:00 23,0 15,0 9 5 SE 10
18.10.2017 11:00:00 23,0 14,0 5 3 S 10
18.10.2017 10:00:00 23,0 14,0 5 3 S 10
18.10.2017 09:00:00 22,0 16,0 4 2 S 10
18.10.2017 08:00:00 21,0 16,0 5 3 S 10
18.10.2017 07:00:00 20,0 15,0 5 3 SSO 10
18.10.2017 06:00:00 20,0 15,0 4 2 SSO 10
18.10.2017 05:00:00 - - - - - -
18.10.2017 04:00:00 - - - - - -
18.10.2017 03:00:00 - - - - - -
18.10.2017 02:00:00 - - - - - -
18.10.2017 01:00:00 - - - - - -
18.10.2017 00:00:00 - - - - - -
17.10.2017 23:00:00 - - - - - -
17.10.2017 22:00:00 22,0 15,0 8 4 SE 10
17.10.2017 21:00:00 21,0 15,0 8 4 ESE 10
17.10.2017 20:00:00 22,0 15,0 8 4 ESE 10
17.10.2017 19:00:00 22,0 15,0 5 3 E 10
17.10.2017 18:00:00 22,0 15,0 4 2 ENE 10
17.10.2017 17:00:00 23,0 15,0 5 3 E 10
17.10.2017 16:00:00 23,0 16,0 8 4 ENE 10
17.10.2017 15:00:00 23,0 16,0 5 3 E 10
17.10.2017 14:00:00 23,0 15,0 5 3 ENE 10
17.10.2017 13:00:00 24,0 15,0 5 3 SSE 10
17.10.2017 12:00:00 23,0 15,0 8 4 SSO 10
17.10.2017 11:00:00 23,0 16,0 8 4 SSO 10
17.10.2017 10:00:00 23,0 15,0 2 1 - 10
17.10.2017 09:00:00 22,0 16,0 2 1 NNE 10
17.10.2017 08:00:00 20,0 15,0 2 1 N 10
17.10.2017 07:00:00 20,0 15,0 4 2 NNO 10
17.10.2017 06:00:00 20,0 15,0 4 2 NNO 10
17.10.2017 05:00:00 - - - - - -
17.10.2017 04:00:00 - - - - - -

tt = Temperatura
td = dewpoint
ff = velocità del vento
dd = direzione del vento
vv = visibility

Stazioni seguenti

WeatherPro
AMSI
MeteoEarth